This is the latest recevied weather packets stored in our database for station/object KB3KBR-WX. If no packets are shown the sender has not sent any weather packets the latest 10 day(s).
| Time | Temp. | Humidity | Pressure | Rain* | Wind** | Luminosity | Snow |
|---|---|---|---|---|---|---|---|
| 1787428163 | 26.67° C | 60% | 1009 hPa | 0 mm | - | - | - |
| 1787427834 | 27.22° C | 62% | 1009 hPa | 0 mm | - | - | - |
| 1787427503 | 27.22° C | 63% | 1009.1 hPa | 0 mm | - | - | - |
| 1787427204 | 27.22° C | 60% | 1009.3 hPa | 0 mm | - | - | - |
| 1787426904 | 27.78° C | 60% | 1009.3 hPa | 0 mm | - | - | - |
| 1787426573 | 27.78° C | 58% | 1009.5 hPa | 0 mm | - | - | - |
| 1787426243 | 27.78° C | 60% | 1009.5 hPa | 0 mm | - | - | - |
| 1787425914 | 27.78° C | 63% | 1009.7 hPa | 0 mm | - | - | - |
| 1787425584 | 27.78° C | 61% | 1009.7 hPa | 0 mm | - | - | - |
| 1787425253 | 27.22° C | 64% | 1009.8 hPa | 0 mm | - | - | - |
| 1787424924 | 27.22° C | 63% | 1009.6 hPa | 0 mm | - | - | - |
| 1787424624 | 27.22° C | 61% | 1009.6 hPa | 0 mm | - | - | - |
| 1787423964 | 26.67° C | 64% | 1009.6 hPa | 0 mm | - | - | - |
| 1787423664 | 26.67° C | 64% | 1009.9 hPa | 0 mm | - | - | - |
| 1787423334 | 26.67° C | 62% | 1009.9 hPa | 0 mm | - | - | - |
| 1787423034 | 26.67° C | 64% | 1009.9 hPa | 0 mm | - | - | - |
| 1787422403 | 26.11° C | 66% | 1010 hPa | 0 mm | - | - | - |
| 1787422073 | 26.11° C | 65% | 1010.1 hPa | 0 mm | - | - | - |
| 1787421773 | 26.67° C | 65% | 1010.2 hPa | 0 mm | - | - | - |
| 1787421443 | 26.67° C | 67% | 1010.5 hPa | 0 mm | - | - | - |
| 1787421113 | 26.11° C | 67% | 1010.6 hPa | 0 mm | - | - | - |
| 1787420784 | 26.11° C | 66% | 1010.6 hPa | 0 mm | - | - | - |
| 1787420484 | 26.11° C | 66% | 1010.8 hPa | 0 mm | - | - | - |
| 1787420183 | 26.11° C | 64% | 1010.9 hPa | 0 mm | - | - | - |
| 1787419853 | 26.11° C | 66% | 1011 hPa | 0 mm | - | - | - |
* Rain latest hour (hover to see other rain measurements)
** Current wind speed in m/s (hover to see current wind gust speed)